FW4092 Weather Reports


Display with metric or nautical units.
time (UTC)temp
F
wind
direction
speed
MPH
gust
MPH
rain 1hr
in
rain 24hr
in
rain mn
in
humidity
%
barometer
mb
20260507192501 73 271 4.0 9.0 0.00 0.00 0.00 29 1013.9
20260507191713 72 260 5.0 11.0 0.00 0.00 0.00 29 1014.0
20260507190931 72 294 4.0 10.0 0.00 0.00 0.00 30 1014.0
20260507190458 72 267 4.0 10.0 0.00 0.00 0.00 30 1014.2
20260507190454 72 260 4.0 9.0 0.00 0.00 0.00 29 1014.1
20260507185430 71 282 4.0 10.0 0.00 0.00 0.00 30 1014.2
20260507184930 71 276 2.0 8.0 0.00 0.00 0.00 33 1014.2
20260507184430 70 346 3.0 6.0 0.00 0.00 0.00 35 1014.3
20260507183929 70 0 4.0 9.0 0.00 0.00 0.00 35 1014.4
20260507183431 69 315 2.0 9.0 0.00 0.00 0.00 36 1014.4
20260507182927 69 355 2.0 6.0 0.00 0.00 0.00 37 1014.5
20260507182424 69 317 2.0 6.0 0.00 0.00 0.00 36 1014.5
20260507181924 69 345 2.0 4.0 0.00 0.00 0.00 37 1014.5
20260507181712 69 67 2.0 6.0 0.00 0.00 0.00 37 1014.5
20260507180922 69 343 2.0 6.0 0.00 0.00 0.00 38 1014.6
20260507180711 68 344 2.0 6.0 0.00 0.00 0.00 40 1014.6
20260507175920 68 119 3.0 6.0 0.00 0.00 0.00 39 1014.7
20260507175420 68 118 2.0 8.0 0.00 0.00 0.00 40 1014.7
20260507174919 68 148 2.0 8.0 0.00 0.00 0.00 40 1014.8
20260507174427 67 113 3.0 8.0 0.00 0.00 0.00 41 1014.8
20260507174145 67 135 3.0 8.0 0.00 0.00 0.00 41 1015.0
20260507173421 67 355 2.0 6.0 0.00 0.00 0.00 43 1015.0
20260507172918 66 0 1.0 5.0 0.00 0.00 0.00 43 1015.0
20260507172418 65 306 2.0 5.0 0.00 0.00 0.00 44 1015.0
20260507171917 66 13 2.0 5.0 0.00 0.00 0.00 42 1015.1
20260507171417 66 121 3.0 5.0 0.00 0.00 0.00 43 1015.1
20260507170911 65 263 2.0 6.0 0.00 0.00 0.00 44 1015.1
20260507170649 65 232 1.0 6.0 0.00 0.00 0.00 45 1015.1
20260507165859 65 221 2.0 6.0 0.00 0.00 0.00 47 1015.1
20260507165354 64 221 2.0 6.0 0.00 0.00 0.00 47 1015.1
20260507164848 64 255 1.0 4.0 0.00 0.00 0.00 47 1015.2
20260507164341 64 202 2.0 8.0 0.00 0.00 0.00 48 1015.1
20260507163837 64 223 2.0 8.0 0.00 0.00 0.00 48 1015.2
20260507163330 63 255 2.0 5.0 0.00 0.00 0.00 49 1015.1
20260507162823 63 239 2.0 6.0 0.00 0.00 0.00 49 1015.1
20260507162317 62 53 3.0 6.0 0.00 0.00 0.00 51 1015.1
20260507161811 62 321 2.0 6.0 0.00 0.00 0.00 51 1015.1
20260507161308 62 316 1.0 5.0 0.00 0.00 0.00 51 1015.1
20260507160803 61 348 3.0 8.0 0.00 0.00 0.00 52 1015.2
20260507160254 62 277 3.0 8.0 0.00 0.00 0.00 52 1015.2
20260507155747 61 355 2.0 8.0 0.00 0.00 0.00 54 1015.3
20260507155241 61 17 2.0 8.0 0.00 0.00 0.00 54 1015.3
20260507154735 61 32 2.0 9.0 0.00 0.00 0.00 54 1015.3
20260507154232 60 346 2.0 9.0 0.00 0.00 0.00 56 1015.3
20260507153723 60 325 1.0 5.0 0.00 0.00 0.00 57 1015.3
20260507153218 60 0 2.0 5.0 0.00 0.00 0.00 57 1015.3
20260507152951 60 9 1.0 5.0 0.00 0.00 0.00 57 1015.3
20260507152434 60 124 1.0 3.0 0.00 0.00 0.00 58 1015.3
20260507151700 59 124 1.0 5.0 0.00 0.00 0.00 59 1015.3
20260507151155 59 124 2.0 6.0 0.00 0.00 0.00 60 1015.3
20260507150935 58 277 1.0 6.0 0.00 0.00 0.00 60 1015.4
20260507150141 58 327 2.0 4.0 0.00 0.00 0.00 60 1015.3
20260507145916 58 346 2.0 4.0 0.00 0.00 0.00 60 1015.3
20260507145129 57 346 1.0 8.0 0.00 0.00 0.00 62 1015.4
20260507144623 57 300 2.0 8.0 0.00 0.00 0.00 62 1015.4
20260507144122 56 306 3.0 10.0 0.00 0.00 0.00 63 1015.4
20260507143621 56 335 4.0 10.0 0.00 0.00 0.00 64 1015.4
20260507143121 55 292 4.0 9.0 0.00 0.00 0.00 66 1015.3
20260507142622 55 316 3.0 9.0 0.00 0.00 0.00 68 1015.3
20260507142414 53 298 1.0 5.0 0.00 0.00 0.00 70 1015.3
20260507141902 53 194 1.0 5.0 0.00 0.00 0.00 67 1015.3
20260507141124 53 65 1.0 3.0 0.00 0.00 0.00 68 1015.2
20260507140621 52 63 0.0 2.0 0.00 0.00 0.00 69 1015.2
20260507140128 52 63 0.0 1.0 0.00 0.00 0.00 70 1015.2
20260507135653 52 63 0.0 0.0 0.00 0.00 0.00 69 1015.1
20260507134626 51 61 0.0 2.0 0.00 0.00 0.00 68 1015.0
20260507134125 52 61 0.0 2.0 0.00 0.00 0.00 68 1014.8
20260507133625 52 61 0.0 2.0 0.00 0.00 0.00 67 1014.8
20260507133123 53 58 0.0 0.0 0.00 0.00 0.00 65 1014.8
20260507132618 53 58 0.0 0.0 0.00 0.00 0.00 64 1014.7
20260507132355 54 58 0.0 2.0 0.00 0.00 0.00 63 1014.7
20260507131622 54 58 1.0 3.0 0.00 0.00 0.00 61 1014.7
20260507131118 55 57 2.0 5.0 0.00 0.00 0.00 60 1014.7
20260507130620 56 53 3.0 8.0 0.00 0.00 0.00 58 1014.7
20260507130120 56 326 4.0 10.0 0.00 0.00 0.00 58 1014.6
20260507125617 56 302 4.0 10.0 0.00 0.00 0.00 57 1014.6
20260507125123 56 310 5.0 13.0 0.00 0.00 0.00 56 1014.5
20260507124621 57 319 6.0 13.0 0.00 0.00 0.00 56 1014.5
20260507124119 57 336 6.0 12.0 0.00 0.00 0.00 56 1014.3
20260507123615 57 293 7.0 14.0 0.00 0.00 0.00 56 1014.3
20260507123116 57 284 7.0 14.0 0.00 0.00 0.00 55 1014.3
20260507122625 58 274 7.0 13.0 0.00 0.00 0.00 55 1014.3
20260507122614 57 259 7.0 14.0 0.00 0.00 0.00 55 1014.3
20260507121614 58 294 7.0 13.0 0.00 0.00 0.00 55 1014.4
20260507121115 58 318 7.0 15.0 0.00 0.00 0.00 54 1014.3
20260507120858 58 284 7.0 15.0 0.00 0.00 0.00 54 1014.4
20260507120122 58 304 7.0 13.0 0.00 0.00 0.00 55 1014.4
20260507115851 58 281 7.0 13.0 0.00 0.00 0.00 54 1014.4
20260507115116 57 278 6.0 13.0 0.00 0.00 0.00 56 1014.4
20260507114614 58 331 7.0 12.0 0.00 0.00 0.00 57 1014.5
20260507114341 58 275 7.0 13.0 0.00 0.00 0.00 58 1014.5
20260507113842 58 288 7.0 13.0 0.00 0.00 0.00 57 1014.6
20260507113100 58 310 6.0 13.0 0.00 0.00 0.00 56 1014.6
20260507112553 58 295 6.0 12.0 0.00 0.00 0.00 56 1014.5
20260507112046 58 283 6.0 12.0 0.00 0.00 0.00 54 1014.7
20260507111816 58 286 6.0 13.0 0.00 0.00 0.00 56 1014.7
20260507111034 57 257 5.0 13.0 0.00 0.00 0.00 55 1014.6
20260507110804 56 299 3.0 11.0 0.00 0.00 0.00 60 1014.6
20260507110022 56 301 4.0 9.0 0.00 0.00 0.00 62 1014.6
20260507105518 55 293 3.0 8.0 0.00 0.00 0.00 64 1014.7
20260507105011 55 301 2.0 5.0 0.00 0.00 0.00 65 1014.7
20260507104738 54 317 2.0 7.0 0.00 0.00 0.00 65 1014.7
20260507104234 54 313 2.0 7.0 0.00 0.00 0.00 66 1014.7
20260507103457 54 319 1.0 4.0 0.00 0.00 0.00 67 1014.6
20260507102946 54 355 0.0 4.0 0.00 0.00 0.00 67 1014.6
20260507102440 54 269 0.0 2.0 0.00 0.00 0.00 67 1014.8
20260507101939 54 267 0.0 2.0 0.00 0.00 0.00 66 1014.7
20260507101429 55 267 0.0 4.0 0.00 0.00 0.00 66 1014.7
20260507100923 55 267 0.0 4.0 0.00 0.00 0.00 65 1014.8
20260507100417 55 269 0.0 3.0 0.00 0.00 0.00 65 1014.8
20260507095910 56 269 1.0 4.0 0.00 0.00 0.00 65 1014.8
20260507095405 56 275 1.0 4.0 0.00 0.00 0.00 64 1014.8
20260507094859 56 279 1.0 5.0 0.00 0.00 0.00 63 1015.0
20260507094613 57 277 3.0 6.0 0.00 0.00 0.00 63 1015.0
20260507093846 57 253 2.0 6.0 0.00 0.00 0.00 62 1015.0
20260507093341 57 252 2.0 7.0 0.00 0.00 0.00 62 1015.0
20260507092834 58 269 4.0 12.0 0.00 0.00 0.00 61 1015.0
20260507092329 57 273 3.0 12.0 0.00 0.00 0.00 62 1015.1
20260507091822 56 283 1.0 6.0 0.00 0.00 0.00 63 1015.0
20260507091316 57 290 1.0 3.0 0.00 0.00 0.00 64 1015.1
20260507090812 57 306 1.0 4.0 0.00 0.00 0.00 64 1015.1
20260507090304 58 311 2.0 6.0 0.00 0.00 0.00 63 1015.1
20260507090029 58 290 2.0 7.0 0.00 0.00 0.00 63 1015.2
20260507085514 58 300 2.0 7.0 0.00 0.00 0.00 62 1015.2
20260507084747 58 311 3.0 7.0 0.00 0.00 0.00 61 1015.2
20260507084241 58 310 3.0 9.0 0.00 0.00 0.00 61 1015.2
20260507083734 58 287 3.0 9.0 0.00 0.00 0.00 61 1015.3
20260507083230 58 271 3.0 7.0 0.00 0.00 0.00 61 1015.3
20260507082730 58 274 3.0 7.0 0.00 0.00 0.00 61 1015.2
20260507082230 58 276 3.0 8.0 0.00 0.00 0.00 62 1015.2
20260507082016 58 265 3.0 9.0 0.00 0.00 0.00 62 1015.3
20260507081228 58 281 4.0 9.0 0.00 0.00 0.00 62 1015.2
20260507081021 58 266 4.0 8.0 0.00 0.00 0.00 63 1015.2
20260507080229 58 246 3.0 8.0 0.00 0.00 0.00 64 1015.3
20260507075728 58 259 3.0 10.0 0.00 0.00 0.00 65 1015.3
20260507075228 58 250 4.0 10.0 0.00 0.00 0.00 65 1015.4
20260507074728 58 248 4.0 9.0 0.00 0.00 0.00 66 1015.5
20260507074514 58 295 4.0 9.0 0.00 0.00 0.00 65 1015.5
20260507073728 58 258 3.0 9.0 0.00 0.00 0.00 65 1015.5
20260507073229 59 291 4.0 9.0 0.00 0.00 0.00 65 1015.5
20260507072728 59 291 4.0 10.0 0.00 0.00 0.00 65 1015.5
20260507072228 59 299 5.0 10.0 0.00 0.00 0.00 65 1015.5
20260507072014 59 302 4.0 10.0 0.00 0.00 0.00 64 1015.5
20260507071230 60 300 5.0 11.0 0.00 0.00 0.00 64 1015.5
20260507070726 60 281 4.0 11.0 0.00 0.00 0.00 63 1015.5
20260507070226 60 286 5.0 10.0 0.00 0.00 0.00 63 1015.5
20260507065727 60 306 6.0 13.0 0.00 0.00 0.00 63 1015.6
20260507065226 60 300 6.0 13.0 0.00 0.00 0.00 62 1015.6
20260507064726 61 292 8.0 14.0 0.00 0.00 0.00 62 1015.6
20260507064233 61 300 8.0 14.0 0.00 0.00 0.00 61 1015.5
20260507063726 61 294 7.0 12.0 0.00 0.00 0.00 61 1015.6
20260507063227 61 265 7.0 11.0 0.00 0.00 0.00 61 1015.7
20260507062725 61 304 7.0 11.0 0.00 0.00 0.00 61 1015.6
20260507062227 61 292 7.0 13.0 0.00 0.00 0.00 61 1015.6
20260507061947 61 325 7.0 13.0 0.00 0.00 0.00 61 1015.6
20260507061726 61 325 7.0 13.0 0.00 0.00 0.00 61 1015.6
20260507061225 61 294 8.0 14.0 0.00 0.00 0.00 60 1015.6
20260507060726 61 288 8.0 14.0 0.00 0.00 0.00 60 1015.6
20260507060226 61 324 8.0 14.0 0.00 0.00 0.00 60 1015.6
20260507060016 62 300 7.0 13.0 0.00 0.00 0.00 59 1015.6
20260507055226 62 284 7.0 13.0 0.00 0.00 0.00 58 1015.6
20260507054735 62 304 7.0 13.0 0.00 0.00 0.00 57 1015.7
20260507054233 62 281 7.0 13.0 0.00 0.00 0.00 56 1015.8
20260507053731 62 308 7.0 13.0 0.00 0.00 0.00 56 1015.7
20260507053226 62 272 7.0 16.0 0.00 0.00 0.00 55 1015.7
20260507052720 63 274 7.0 16.0 0.00 0.00 0.00 53 1015.8
20260507052210 63 254 7.0 13.0 0.00 0.00 0.00 52 1015.8
20260507051706 63 266 7.0 15.0 0.00 0.00 0.00 52 1015.8
20260507051441 63 320 7.0 15.0 0.00 0.00 0.00 52 1015.8
20260507050651 63 246 7.0 12.0 0.00 0.00 0.00 51 1015.8
20260507050418 63 267 7.0 12.0 0.00 0.00 0.00 50 1015.8
20260507045642 63 257 6.0 12.0 0.00 0.00 0.00 49 1015.8
20260507045137 64 267 6.0 13.0 0.00 0.00 0.00 48 1015.8
20260507044628 64 247 6.0 13.0 0.00 0.00 0.00 47 1015.8
20260507044123 64 267 6.0 12.0 0.00 0.00 0.00 47 1015.8
20260507043619 64 271 6.0 11.0 0.00 0.00 0.00 46 1015.8
20260507043347 64 255 6.0 12.0 0.00 0.00 0.00 46 1015.8
20260507042610 64 249 6.0 12.0 0.00 0.00 0.00 46 1015.8
20260507042334 64 250 6.0 17.0 0.00 0.00 0.00 46 1015.8
20260507041601 65 288 6.0 17.0 0.00 0.00 0.00 46 1015.7
20260507041048 65 269 6.0 14.0 0.00 0.00 0.00 45 1015.7
20260507040539 65 259 6.0 13.0 0.00 0.00 0.00 45 1015.6
20260507040034 65 294 7.0 14.0 0.00 0.00 0.00 44 1015.5
20260507035532 65 281 7.0 15.0 0.00 0.00 0.00 43 1015.5
20260507035026 65 282 6.0 11.0 0.00 0.00 0.00 43 1015.4
20260507034516 66 273 6.0 11.0 0.00 0.00 0.00 43 1015.4
20260507034012 66 266 6.0 12.0 0.00 0.00 0.00 42 1015.3
20260507033507 66 286 6.0 12.0 0.00 0.00 0.00 42 1015.3
20260507033004 67 258 6.0 11.0 0.00 0.00 0.00 42 1015.2
20260507032457 67 261 5.0 11.0 0.00 0.00 0.00 41 1015.2
20260507031948 67 282 6.0 12.0 0.00 0.00 0.00 40 1015.2
20260507031442 68 254 6.0 14.0 0.00 0.00 0.00 39 1015.2
20260507030935 68 288 6.0 14.0 0.00 0.00 0.00 39 1015.1
20260507030429 69 274 7.0 12.0 0.00 0.00 0.00 39 1015.1
20260507025924 69 260 7.0 12.0 0.00 0.00 0.00 38 1014.8
20260507025419 70 281 7.0 13.0 0.00 0.00 0.00 39 1014.8
20260507024912 70 279 7.0 14.0 0.00 0.00 0.00 39 1014.8
20260507024647 70 294 7.0 14.0 0.00 0.00 0.00 39 1014.8
20260507023903 70 266 7.0 13.0 0.00 0.00 0.00 39 1014.7
20260507023632 70 299 6.0 13.0 0.00 0.00 0.00 39 1014.7
20260507023134 70 271 6.0 11.0 0.00 0.00 0.00 39 1014.6
20260507022358 70 287 7.0 14.0 0.00 0.00 0.00 39 1014.6
20260507022133 71 292 6.0 14.0 0.00 0.00 0.00 38 1014.5
20260507021359 71 309 4.0 11.0 0.00 0.00 0.00 38 1014.5
20260507020900 71 287 5.0 10.0 0.00 0.00 0.00 38 1014.5
20260507020402 71 315 5.0 10.0 0.00 0.00 0.00 38 1014.5
20260507015900 72 268 4.0 10.0 0.00 0.00 0.00 38 1014.6
20260507015444 72 276 4.0 10.0 0.00 0.00 0.00 37 1014.6
20260507015211 72 321 4.0 9.0 0.00 0.00 0.00 37 1014.5
20260507013900 72 274 4.0 11.0 0.00 0.00 0.00 36 1014.5
20260507013359 72 306 6.0 16.0 0.00 0.00 0.00 35 1014.5
20260507013121 73 290 7.0 16.0 0.00 0.00 0.00 35 1014.5
20260507012358 73 282 7.0 15.0 0.00 0.00 0.00 35 1014.6
20260507012113 73 276 7.0 16.0 0.00 0.00 0.00 35 1014.5
20260507011859 73 276 7.0 16.0 0.00 0.00 0.00 35 1014.5
20260507011357 74 319 8.0 17.0 0.00 0.00 0.00 34 1014.4
20260507010858 74 277 9.0 19.0 0.00 0.00 0.00 34 1014.4
20260507010638 74 319 9.0 19.0 0.00 0.00 0.00 33 1014.4
20260507005929 74 249 10.0 19.0 0.00 0.00 0.00 33 1014.4
20260507005916 74 273 10.0 19.0 0.00 0.00 0.00 33 1014.3
20260507004849 75 304 9.0 18.0 0.00 0.00 0.00 32 1014.3
20260507004348 75 294 10.0 21.0 0.00 0.00 0.00 33 1014.3
20260507003848 76 294 9.0 21.0 0.00 0.00 0.00 32 1014.2
20260507003347 76 281 9.0 17.0 0.00 0.00 0.00 32 1014.0
20260507002845 76 306 10.0 21.0 0.00 0.00 0.00 32 1013.9
20260507002345 76 318 11.0 21.0 0.00 0.00 0.00 32 1014.0
20260507002115 77 5 10.0 19.0 0.00 0.00 0.00 31 1013.9
20260507001615 77 299 11.0 20.0 0.00 0.00 0.00 31 1014.0
20260507000846 77 302 11.0 20.0 0.00 0.00 0.00 32 1013.9
20260507000343 77 284 11.0 21.0 0.00 0.00 0.00 31 1013.8
20260506235844 77 306 11.0 21.0 0.00 0.00 0.00 32 1013.9
20260506235343 77 311 11.0 19.0 0.00 0.00 0.00 33 1013.8
20260506234841 77 269 10.0 19.0 0.00 0.00 0.00 33 1013.9
20260506234336 78 300 10.0 19.0 0.00 0.00 0.00 33 1013.6
20260506233828 78 329 10.0 20.0 0.00 0.00 0.00 34 1013.6
20260506233322 78 277 11.0 20.0 0.00 0.00 0.00 32 1013.6
20260506232818 79 309 9.0 18.0 0.00 0.00 0.00 32 1013.6
20260506232310 79 276 8.0 18.0 0.00 0.00 0.00 30 1013.5
20260506231804 79 294 8.0 16.0 0.00 0.00 0.00 30 1013.5
20260506231530 79 336 9.0 17.0 0.00 0.00 0.00 30 1013.6
20260506230957 79 325 10.0 18.0 0.00 0.00 0.00 30 1013.6
20260506225739 80 309 10.0 18.0 0.00 0.00 0.00 31 1013.5
20260506225236 80 264 9.0 18.0 0.00 0.00 0.00 31 1013.6
20260506224729 80 274 9.0 20.0 0.00 0.00 0.00 31 1013.6
20260506224225 80 311 9.0 20.0 0.00 0.00 0.00 31 1013.6
20260506223947 80 288 10.0 20.0 0.00 0.00 0.00 31 1013.6
20260506223213 80 261 10.0 18.0 0.00 0.00 0.00 31 1013.8
20260506222704 80 286 9.0 18.0 0.00 0.00 0.00 31 1013.8
20260506222159 80 293 9.0 18.0 0.00 0.00 0.00 31 1013.8
20260506221914 80 338 9.0 18.0 0.00 0.00 0.00 31 1013.9
20260506221146 80 266 8.0 17.0 0.00 0.00 0.00 31 1013.9
20260506220645 80 272 9.0 16.0 0.00 0.00 0.00 31 1013.8
20260506220135 81 315 9.0 16.0 0.00 0.00 0.00 31 1013.8
20260506215732 81 249 9.0 16.0 0.00 0.00 0.00 29 1013.9
20260506215726 81 288 9.0 16.0 0.00 0.00 0.00 30 1013.9
20260506214618 81 295 8.0 16.0 0.00 0.00 0.00 30 1013.8
20260506214110 81 313 7.0 15.0 0.00 0.00 0.00 29 1013.8
20260506213604 81 325 8.0 14.0 0.00 0.00 0.00 29 1013.9
20260506213058 82 292 7.0 14.0 0.00 0.00 0.00 28 1013.9
20260506212816 82 273 7.0 15.0 0.00 0.00 0.00 29 1013.9
20260506212555 82 273 7.0 15.0 0.00 0.00 0.00 29 1013.9
20260506212049 81 243 7.0 15.0 0.00 0.00 0.00 27 1013.9
20260506211817 82 316 6.0 12.0 0.00 0.00 0.00 26 1013.8
20260506211307 81 248 6.0 12.0 0.00 0.00 0.00 28 1013.9
20260506210528 81 291 4.0 12.0 0.00 0.00 0.00 27 1013.9
20260506210022 81 334 4.0 10.0 0.00 0.00 0.00 27 1013.9
20260506205518 81 322 4.0 11.0 0.00 0.00 0.00 27 1014.0
20260506205018 81 327 4.0 11.0 0.00 0.00 0.00 26 1014.0
20260506204518 81 318 4.0 11.0 0.00 0.00 0.00 26 1014.1
20260506204021 80 316 4.0 12.0 0.00 0.00 0.00 27 1014.1
20260506203519 80 219 4.0 12.0 0.00 0.00 0.00 26 1014.2
20260506203019 80 315 4.0 9.0 0.00 0.00 0.00 26 1014.2
20260506202825 81 12 5.0 11.0 0.00 0.00 0.00 26 1014.2
20260506202821 81 355 5.0 11.0 0.00 0.00 0.00 26 1014.3
20260506201516 80 254 4.0 10.0 0.00 0.00 0.00 27 1014.2
20260506201300 79 331 3.0 13.0 0.00 0.00 0.00 29 1014.2
20260506200758 79 17 4.0 13.0 0.00 0.00 0.00 29 1014.2
20260506200017 79 276 5.0 13.0 0.00 0.00 0.00 28 1014.4
20260506195512 79 298 4.0 11.0 0.00 0.00 0.00 27 1014.4
20260506195012 79 350 5.0 15.0 0.00 0.00 0.00 28 1014.4
20260506194512 78 244 5.0 15.0 0.00 0.00 0.00 29 1014.4
20260506194257 78 219 4.0 13.0 0.00 0.00 0.00 29 1014.6
20260506193512 78 303 4.0 9.0 0.00 0.00 0.00 31 1014.7
20260506193258 78 262 6.0 11.0 0.00 0.00 0.00 30 1014.8
20260506192758 78 226 6.0 11.0 0.00 0.00 0.00 30 1015.0